Location: Góry Miechowskie
(50.3599°N, 20.1803°E)
Time: 07:02:56
(UTC+00:00)

A-11 Canister half - Pass Details

Date: 17 September 2024
Orbit: 1524 x 1683 km, 47.3° (Epoch: 12 October)

Event Time Altitude Azimuth Distance (km) Brightness Sun altitude
Rises 18:12:57 0° 288° (WNW) 4,819 13.6 -14.1°
Reaches altitude 10° 18:16:23 10° 280° (W) 3,853 12.4 -14.6°
Maximum altitude 18:24:53 35° 220° (SW) 2,461 10.2 -15.8°
Drops below altitude 10° 18:33:34 10° 160° (SSE) 3,928 10.7 -17.1°
Enters shadow 18:34:17 - 158° (SSE) 4,124 10.8 -17.2°
